User: anonymous   Login
Location: Unspecified
(0.0000°N, 0.0000°E)
Time: 18:43:32
(UTC+01:00)
Language:

Ariane H10 - Orbit

View from above orbital plane
View from above orbital plane
View from above satellite
View from above satellite

Ground track
Ground track

The orbit data is extracted from the following two-line orbital elements,

1 21815U 91084C   14355.20819830  .00000256  00000-0  10057-2 0  7006
2 21815 003.9623 094.1032 7187397 055.1232 341.4090 02.31153589191279
Epoch (UTC): 21 December 2014 04:59:48
Eccentricity: 0.7187397
inclination: 3.9623°
perigee height: 418 km
apogee height: 35150 km
right ascension of ascending node: 94.1032°
argument of perigee: 55.1232°
revolutions per day: 2.31153589
mean anomaly at epoch: 341.4090°
orbit number at epoch: 19127

The dashed part of the orbit path shows where the satellite is in the earth's shadow,  

DLR